Wind_Speed
45 45 44 44 44 45 45 45 46 46 48 48 48 47 45 44 45 46 46 47 47 48 48 48 48 47 46 44 43 42 42 43 44 45 47 48 50 50 51 51 52 53
45 45 45 45 45 46 46 47 47 48 48 47 45 45 44 44 45 46 46 47 47 48 48 47 46 45 44 42 42 43 44 45 46 47 48 49 50 50 51 52 53 53
44 44 45 45 46 47 47 48 48 47 46 45 44 45 45 45 46 46 47 47 47 47 47 46 44 43 42 42 43 44 45 46 47 48 49 50 50 51 51 52 53 54
45 46 46 46 47 47 46 46 46 45 45 44 45 45 46 46 46 46 47 46 46 46 45 44 42 42 42 43 44 45 45 46 48 49 50 51 51 51 52 53 54 54
47 47 47 46 46 46 45 45 45 45 45 45 46 47 47 47 47 46 46 46 45 44 43 42 42 43 43 44 45 45 46 48 50 51 51 51 51 52 52 53 54 54
47 47 46 46 46 46 45 46 46 46 46 46 47 47 47 47 47 46 45 44 44 43 43 43 43 44 44 45 46 47 48 50 51 51 51 51 51 52 52 53 54 54
47 46 46 46 46 46 47 48 47 46 47 47 48 48 48 47 46 45 44 43 42 42 42 43 43 44 45 46 47 48 50 51 51 51 51 51 51 51 52 53 53 54
48 47 47 47 46 47 48 48 47 47 48 48 48 48 47 46 45 43 42 42 42 42 42 43 43 44 45 46 48 49 50 51 51 51 51 51 51 51 52 52 53 54
51 49 49 49 48 49 49 48 48 48 48 47 47 46 45 44 43 42 42 41 42 42 42 43 44 45 46 47 48 50 50 51 51 51 50 50 50 51 52 53 53 53
52 50 49 49 49 50 50 49 48 47 46 46 45 45 43 42 41 41 41 41 42 42 43 44 45 46 47 48 49 50 50 51 51 50 50 50 50 51 51 52 52 53
49 47 46 47 48 48 48 47 46 45 45 44 44 42 41 41 41 41 42 42 43 43 44 44 45 46 47 48 49 50 50 50 50 49 49 50 50 50 51 51 52 53
47 45 45 45 45 44 44 44 43 43 43 42 41 40 40 40 41 41 42 43 43 44 44 45 46 46 47 48 49 49 49 49 48 48 49 49 49 49 50 50 52 53
45 44 44 43 42 42 42 42 42 41 41 40 40 39 40 40 41 42 43 43 44 44 45 45 46 46 47 48 48 48 48 48 47 47 48 48 48 49 49 51 51 52
43 43 43 42 41 40 40 40 40 39 39 39 39 39 40 41 42 42 43 43 44 44 45 45 46 46 47 48 48 47 47 46 46 46 47 47 48 49 49 50 50 50
42 41 40 39 38 38 38 38 38 38 38 39 39 39 40 41 42 42 43 43 44 44 45 45 46 47 47 47 47 46 45 45 45 46 46 47 48 48 48 49 48 48
39 38 37 36 36 36 36 37 37 38 38 39 39 39 40 41 42 42 43 43 44 45 45 45 46 47 47 47 46 45 44 44 45 45 46 46 47 47 47 48 48 47
37 36 35 34 34 35 36 37 37 37 38 39 39 39 40 41 42 43 43 43 44 45 45 46 46 46 46 45 44 43 43 43 44 45 45 46 46 46 47 47 47 47
35 35 34 33 33 34 36 37 37 37 38 39 39 40 40 41 42 43 44 44 44 45 45 45 45 45 44 43 43 43 43 43 44 45 45 46 46 46 47 47 48 48
34 34 33 33 33 34 36 36 36 36 37 38 39 40 41 41 42 43 44 44 45 45 44 44 44 43 43 43 43 43 43 43 44 45 46 46 46 46 47 48 48 48
33 33 33 32 33 34 35 36 36 36 37 39 40 41 41 42 43 44 44 44 44 44 43 43 43 43 43 43 43 44 44 44 45 46 47 47 46 47 48 49 49 49
33 33 32 32 33 34 35 36 36 37 38 39 40 41 42 42 43 44 44 45 44 43 42 42 43 44 44 44 44 45 45 46 46 46 46 47 47 48 48 49 49 49
32 32 31 32 32 34 35 36 37 38 39 40 40 41 42 43 43 44 45 44 44 43 42 43 44 45 45 45 46 46 46 46 46 45 46 48 49 49 48 48 48 49
31 31 31 31 32 33 35 36 37 39 40 40 41 42 42 43 44 44 45 44 43 43 43 43 44 45 46 47 47 47 46 46 46 46 48 50 51 50 49 48 48 48
32 31 31 31 32 34 35 37 38 39 40 40 41 42 43 43 44 44 44 44 43 43 44 44 45 46 47 48 48 47 46 47 47 47 47 49 51 51 50 49 49 49
32 32 32 32 33 35 36 37 39 40 41 41 42 42 43 43 44 44 44 44 44 45 45 45 46 47 48 48 47 47 47 48 48 48 47 48 49 50 50 51 50 49
30 31 33 33 34 36 37 38 40 41 41 42 42 42 42 43 44 45 45 45 45 46 46 47 48 48 48 48 48 49 49 49 49 50 49 49 49 50 51 52 52 51
Wind_Direction
257 258 260 262 265 267 269 270 272 275 277 279 280 280 281 281 283 284 285 286 288 289 290 292 293 293 294 295 296 296 298 299 300 301 302 303 304 304 303 303 302 302
255 257 259 262 266 268 270 272 275 277 278 279 279 279 280 282 283 284 285 287 288 289 290 292 293 294 295 295 296 298 299 301 301 302 303 304 304 304 303 303 303 303
254 257 260 264 267 269 271 274 276 277 278 278 278 280 281 282 283 285 286 287 288 289 290 291 292 294 295 296 297 299 300 301 301 302 304 304 304 304 304 304 303 304
255 259 263 265 267 270 272 275 276 276 276 277 279 280 281 282 284 285 286 286 287 288 289 290 292 294 295 296 298 299 299 299 300 302 304 305 305 305 304 303 303 304
258 261 263 264 267 270 272 274 275 275 276 278 279 280 282 283 284 284 285 286 287 288 289 290 292 293 294 296 297 297 297 298 301 303 304 305 304 303 303 303 303 303
258 260 262 264 267 269 270 273 275 275 276 278 279 280 281 282 283 284 285 286 287 287 289 290 291 293 294 295 296 297 297 299 301 302 303 303 303 303 303 303 303 302
257 260 261 264 267 268 270 273 274 275 276 278 279 280 280 281 282 282 284 285 286 287 288 289 290 291 293 294 295 296 297 298 299 301 301 302 303 303 303 303 302 302
257 260 262 264 267 269 271 273 274 275 276 277 278 278 279 279 280 282 283 284 286 286 287 288 289 290 291 293 294 295 295 296 298 300 301 302 303 303 303 302 302 302
257 261 262 264 267 268 270 272 274 275 275 275 276 276 277 278 280 282 283 285 286 286 287 287 288 289 291 292 293 294 295 296 298 300 301 303 303 303 303 303 303 302
257 261 263 264 266 268 269 272 273 273 273 273 273 274 276 278 280 282 284 285 286 287 287 288 289 290 291 292 293 294 296 297 299 301 302 303 304 304 303 303 303 302
257 260 262 264 266 268 269 270 270 270 271 271 272 274 276 279 280 282 284 285 286 286 287 289 290 291 292 293 294 296 297 298 300 302 302 303 304 304 303 303 302 302
256 259 261 263 265 266 267 267 268 269 269 271 272 274 277 279 280 282 283 284 286 287 288 289 291 292 293 295 296 297 298 300 301 302 303 304 304 303 302 302 302 303
254 256 260 262 264 265 265 266 267 268 269 271 273 275 277 278 280 281 283 284 286 287 289 290 292 294 295 296 297 298 299 300 302 303 304 304 303 302 302 302 303 304
252 256 259 261 262 263 264 265 266 267 269 271 273 274 277 278 280 282 283 285 287 288 290 292 294 295 296 296 297 298 300 301 303 303 304 303 302 302 303 303 304 305
253 255 257 258 259 261 262 264 265 267 269 270 273 275 277 279 281 282 284 286 288 290 291 293 295 296 296 297 298 299 301 303 303 304 304 303 303 303 304 304 305 305
252 253 254 256 258 260 261 263 265 267 269 271 273 276 278 280 282 284 286 288 289 291 293 294 295 296 296 298 299 301 303 304 304 304 304 303 304 304 304 304 305 306
250 251 253 254 257 259 261 263 265 268 271 273 276 278 279 281 283 285 287 289 290 292 294 295 296 296 298 299 302 303 304 305 304 304 303 303 304 304 304 305 306 307
249 250 252 254 257 260 262 264 267 270 273 276 278 279 281 283 284 286 288 290 292 293 294 296 296 297 299 301 303 304 304 304 304 303 303 303 303 304 304 306 307 308
248 250 253 255 258 261 264 267 270 273 275 277 279 280 282 284 286 287 289 291 292 293 295 296 297 298 300 301 302 303 303 304 303 303 303 303 303 304 305 306 308 309
248 251 254 257 260 263 267 270 272 274 276 278 280 282 284 285 286 288 290 291 292 293 295 296 297 298 299 300 301 302 303 303 304 304 304 303 304 305 306 307 308 309
249 252 256 259 263 266 269 272 274 276 277 279 281 282 284 286 287 288 289 290 292 294 295 296 297 298 299 300 301 302 303 304 305 305 304 304 304 306 307 308 308 309
252 256 259 263 266 269 271 274 276 277 278 280 282 283 285 286 287 288 289 291 293 294 296 297 297 298 299 300 301 303 304 305 305 305 305 304 304 306 307 308 308 310
257 260 263 266 268 271 274 276 277 279 280 281 283 284 285 286 287 288 290 292 294 295 296 297 297 298 299 300 302 304 304 305 305 306 305 305 305 307 308 309 310 311
260 262 265 268 271 273 275 277 278 279 280 282 283 284 286 287 288 289 291 293 294 295 296 297 298 299 299 301 303 304 305 305 305 306 306 305 307 309 310 310 311 311
264 267 269 271 273 274 276 277 278 280 281 282 284 285 286 288 289 290 292 293 295 296 297 297 298 298 300 302 304 305 305 304 304 303 303 304 305 307 308 309 310 311
268 270 270 272 274 274 276 277 278 280 281 283 285 286 287 288 289 291 292 294 295 297 297 297 298 300 302 304 304 304 304 303 302 303 303 303 303 304 306 307 309 310
Height
10728 10729 10730 10731 10731 10732 10732 10731 10731 10730 10729 10728 10727 10726 10726 10725 10724 10722 10721 10720 10718 10717 10715 10714 10713 10712 10712 10711 10709 10707 10706 10704 10702 10700 10698 10696 10693 10691 10689 10686 10684 10681
10724 10725 10726 10727 10727 10727 10727 10727 10726 10726 10725 10724 10723 10722 10721 10721 10719 10717 10716 10715 10713 10712 10711 10709 10708 10707 10706 10705 10704 10702 10700 10698 10696 10695 10693 10691 10688 10686 10684 10681 10679 10676
10720 10721 10722 10723 10723 10723 10723 10722 10721 10721 10720 10719 10718 10717 10717 10716 10714 10713 10711 10710 10709 10707 10706 10705 10703 10702 10701 10700 10699 10697 10695 10693 10692 10690 10688 10686 10683 10681 10679 10676 10673 10671
10715 10717 10718 10718 10718 10718 10718 10717 10717 10716 10715 10715 10714 10713 10712 10711 10710 10708 10707 10705 10704 10703 10702 10700 10699 10698 10697 10695 10694 10692 10690 10689 10687 10685 10683 10681 10678 10676 10673 10671 10668 10666
10711 10713 10713 10714 10714 10714 10714 10713 10712 10712 10711 10710 10709 10708 10707 10706 10705 10703 10702 10701 10699 10698 10697 10696 10695 10694 10692 10691 10690 10688 10686 10684 10682 10680 10678 10676 10673 10671 10668 10666 10663 10661
10706 10708 10709 10710 10710 10710 10709 10709 10708 10707 10707 10705 10704 10703 10702 10701 10700 10699 10698 10696 10695 10694 10693 10692 10691 10690 10688 10687 10685 10684 10682 10680 10678 10676 10673 10671 10668 10666 10663 10661 10658 10656
10702 10703 10705 10705 10705 10705 10705 10704 10703 10703 10702 10701 10699 10698 10697 10697 10695 10695 10694 10692 10691 10690 10689 10688 10687 10686 10684 10683 10682 10680 10678 10675 10673 10671 10669 10666 10663 10661 10658 10656 10653 10651
10697 10699 10700 10701 10701 10701 10700 10699 10699 10698 10697 10696 10695 10694 10693 10692 10691 10690 10689 10688 10687 10686 10685 10684 10683 10682 10681 10680 10678 10676 10673 10671 10669 10666 10664 10661 10659 10656 10654 10651 10648 10646
10692 10694 10695 10696 10696 10696 10695 10695 10694 10694 10693 10692 10690 10689 10689 10688 10687 10686 10685 10684 10683 10682 10681 10680 10679 10678 10677 10676 10674 10671 10669 10667 10664 10661 10659 10656 10654 10651 10649 10646 10644 10641
10688 10689 10690 10691 10691 10690 10690 10690 10689 10689 10688 10687 10686 10685 10684 10684 10683 10681 10680 10680 10679 10678 10677 10676 10675 10674 10673 10671 10669 10667 10664 10662 10659 10657 10654 10651 10649 10647 10644 10642 10639 10636
10683 10684 10685 10686 10686 10685 10685 10684 10684 10684 10683 10682 10681 10681 10680 10679 10678 10677 10676 10675 10675 10674 10673 10672 10671 10670 10668 10666 10664 10662 10659 10657 10654 10652 10649 10647 10645 10643 10640 10637 10634 10631
10678 10679 10680 10680 10680 10680 10680 10679 10679 10679 10678 10678 10677 10676 10676 10675 10674 10673 10672 10671 10671 10670 10669 10668 10666 10665 10663 10661 10659 10657 10654 10652 10649 10647 10644 10642 10641 10638 10636 10632 10629 10626
10673 10674 10675 10675 10675 10676 10675 10675 10675 10675 10674 10674 10673 10672 10672 10671 10670 10669 10668 10668 10667 10665 10665 10663 10662 10660 10658 10656 10654 10652 10650 10647 10645 10642 10640 10638 10636 10634 10631 10628 10625 10622
10668 10669 10670 10671 10671 10671 10671 10671 10671 10671 10670 10670 10668 10668 10668 10667 10666 10665 10664 10664 10662 10661 10660 10659 10657 10655 10652 10651 10649 10647 10645 10642 10640 10638 10636 10634 10632 10629 10626 10623 10620 10618
10663 10665 10666 10667 10667 10667 10667 10667 10667 10666 10666 10665 10665 10665 10664 10663 10662 10661 10660 10659 10658 10657 10655 10654 10652 10650 10647 10646 10644 10642 10640 10638 10635 10633 10631 10630 10627 10625 10621 10618 10615 10613
10659 10660 10662 10662 10663 10663 10663 10663 10662 10662 10662 10661 10661 10661 10660 10659 10658 10657 10656 10655 10653 10652 10650 10649 10647 10645 10643 10641 10639 10637 10635 10633 10630 10628 10627 10625 10623 10620 10617 10613 10611 10608
10655 10656 10657 10658 10659 10658 10658 10658 10658 10658 10658 10657 10657 10657 10656 10655 10653 10652 10651 10650 10649 10647 10646 10644 10642 10640 10638 10636 10634 10632 10630 10628 10626 10623 10622 10620 10618 10615 10612 10608 10606 10603
10652 10652 10653 10653 10654 10654 10653 10653 10654 10654 10654 10653 10652 10652 10651 10650 10649 10647 10646 10646 10644 10643 10641 10639 10637 10635 10633 10631 10629 10627 10625 10623 10621 10618 10617 10615 10613 10611 10607 10604 10601 10599
10648 10648 10648 10649 10650 10649 10649 10649 10650 10650 10650 10649 10648 10647 10646 10645 10644 10642 10641 10640 10639 10638 10636 10634 10631 10629 10627 10626 10624 10622 10621 10619 10616 10613 10611 10609 10608 10606 10603 10600 10597 10594
10643 10643 10643 10644 10645 10645 10645 10645 10646 10646 10645 10644 10643 10642 10642 10640 10639 10637 10636 10635 10634 10633 10631 10629 10626 10624 10622 10621 10620 10618 10616 10614 10611 10609 10606 10604 10603 10601 10598 10595 10592 10590
10639 10638 10639 10640 10640 10640 10640 10641 10641 10641 10641 10640 10639 10638 10637 10635 10634 10633 10631 10630 10630 10628 10627 10624 10621 10618 10617 10616 10615 10613 10611 10609 10607 10604 10601 10598 10597 10596 10594 10591 10587 10585
10634 10634 10634 10635 10636 10636 10636 10636 10636 10636 10636 10635 10635 10634 10632 10631 10629 10627 10626 10625 10625 10624 10622 10619 10616 10614 10612 10611 10610 10608 10606 10604 10602 10599 10596 10593 10591 10590 10588 10586 10583 10580
10629 10629 10630 10630 10631 10631 10631 10631 10631 10631 10631 10631 10630 10629 10627 10625 10624 10622 10621 10620 10620 10618 10617 10614 10611 10609 10607 10606 10605 10604 10601 10599 10597 10595 10591 10588 10586 10584 10582 10580 10577 10575
10625 10625 10625 10626 10626 10626 10626 10626 10626 10626 10626 10626 10625 10624 10622 10620 10618 10617 10616 10615 10614 10613 10612 10609 10607 10605 10602 10601 10600 10599 10597 10594 10592 10590 10587 10584 10581 10579 10576 10574 10572 10570
10621 10621 10621 10621 10621 10621 10622 10622 10621 10621 10621 10621 10620 10619 10617 10615 10613 10611 10611 10610 10609 10608 10606 10604 10602 10600 10598 10597 10595 10594 10592 10590 10587 10585 10584 10581 10578 10575 10572 10569 10567 10565
10620 10618 10616 10616 10617 10617 10617 10617 10617 10616 10616 10615 10615 10614 10612 10610 10608 10606 10606 10605 10604 10603 10600 10598 10598 10596 10594 10593 10591 10590 10588 10585 10582 10580 10578 10576 10573 10571 10567 10563 10561 10559